Theta_e
323 325 325 327 332 336 339 339 338 336 334 333 332 337 341 341 351 362 352 348 346 354 355 352 349 348 346 340 335 334 335 337 339 338 338 339 338 338 340 342 345 344 342 340 334 327 317 319 325
322 324 326 329 334 339 340 338 338 336 334 333 331 333 336 345 343 352 353 346 347 354 354 353 348 347 346 344 339 339 339 339 338 338 338 338 337 337 339 341 345 344 341 335 326 319 316 321 325
321 324 328 331 333 337 338 338 335 333 333 334 335 335 339 342 340 350 352 347 348 353 353 354 346 346 346 346 346 346 345 343 339 337 338 338 337 337 337 339 340 340 336 329 322 317 317 323 332
322 325 327 330 333 334 334 337 333 333 333 331 333 336 338 347 348 350 349 347 350 353 351 357 345 345 345 346 347 348 348 347 340 338 338 338 337 337 337 338 338 336 332 325 320 317 317 324 330
322 326 329 330 330 331 331 332 332 333 335 333 331 335 339 341 351 351 348 349 349 350 352 356 346 345 344 344 344 347 348 348 344 338 338 339 338 337 337 336 336 334 327 322 319 316 315 320 327
324 326 329 332 332 330 330 330 330 331 332 333 331 332 335 332 344 351 349 349 349 349 350 357 348 345 344 345 346 347 350 348 345 339 339 340 339 338 337 336 336 332 324 321 317 314 314 315 317
323 327 328 330 331 331 330 329 329 330 331 331 331 331 333 330 331 347 350 350 348 348 349 355 352 349 345 346 347 348 349 349 345 340 342 343 340 338 337 336 335 330 324 320 316 315 315 315 316
321 325 327 329 330 331 330 328 328 328 329 328 328 330 333 329 330 336 349 349 348 347 347 351 350 349 349 351 348 348 348 347 344 343 345 345 341 339 338 336 333 328 324 320 317 317 318 319 319
320 322 324 325 327 328 327 328 325 327 326 326 326 327 328 326 326 332 342 348 347 346 346 349 349 349 347 346 349 347 347 347 346 346 346 345 346 345 344 338 339 327 325 321 317 318 318 319 319
320 320 321 322 322 324 323 324 325 326 326 325 325 325 324 324 326 326 332 341 347 346 346 347 350 350 348 345 347 347 349 350 351 350 351 348 344 344 341 339 335 335 324 323 319 318 318 318 327
319 320 320 320 321 321 322 321 322 322 322 323 324 324 324 324 325 326 326 328 338 346 346 345 350 352 350 346 346 347 345 345 346 346 347 346 343 342 341 340 339 338 330 332 327 327 327 329 330
319 320 320 321 320 320 319 320 320 320 321 322 322 322 322 323 323 325 327 326 327 338 347 346 348 353 353 349 346 348 345 345 344 343 344 345 344 343 341 337 340 336 333 331 332 331 331 332 334
319 320 320 319 320 319 319 319 319 320 320 320 320 321 321 321 322 322 324 326 326 329 343 348 348 353 355 353 348 348 347 346 344 342 343 344 344 344 342 339 338 336 333 335 334 334 334 335 336
320 319 320 319 319 319 319 319 319 319 319 319 320 320 321 322 322 321 321 325 325 327 334 344 348 349 355 354 352 350 350 346 345 342 342 344 346 345 343 340 338 337 336 335 336 335 334 335 339
318 318 318 319 319 319 319 319 319 320 320 320 320 320 321 321 321 322 322 323 326 328 328 333 346 350 355 356 354 352 349 348 347 343 342 346 348 347 343 340 339 338 338 336 336 335 336 336 340
318 318 319 320 319 319 317 318 319 320 319 319 320 320 320 320 321 321 321 322 323 324 328 335 341 348 354 355 355 353 352 350 349 347 343 347 348 347 345 340 340 339 337 337 337 337 334 334 337
318 319 319 319 319 318 317 318 319 319 319 320 320 320 320 320 321 320 321 321 322 324 326 329 343 349 352 356 357 354 353 351 349 348 346 345 347 346 345 342 339 339 338 338 337 335 334 336 340
319 319 317 318 318 318 318 318 319 320 320 320 321 320 320 320 321 320 320 320 321 322 325 328 330 344 354 354 356 355 353 354 351 349 348 347 347 347 344 343 338 339 338 338 337 335 335 336 337
318 318 318 319 319 319 319 319 320 320 320 320 321 321 321 321 321 320 320 320 320 321 325 328 332 326 350 353 354 356 354 353 353 351 349 348 349 348 346 344 341 342 340 338 336 337 338 337 338
318 318 318 318 319 319 320 320 321 321 321 321 321 321 321 321 321 321 320 320 320 321 323 326 330 333 343 353 355 355 355 355 353 352 350 349 350 350 349 348 344 343 343 342 342 340 340 339 337
318 318 318 319 320 320 320 322 323 323 322 321 321 321 321 321 321 321 321 320 320 320 323 323 328 330 334 350 351 354 355 354 352 352 352 351 350 350 350 349 348 346 346 345 347 348 345 342 340
319 319 319 319 320 322 323 324 323 323 323 322 321 321 321 321 321 321 321 321 322 322 322 323 325 327 331 335 348 350 352 353 352 352 351 351 351 350 350 350 351 350 351 348 350 349 349 347 343
320 319 319 321 322 323 323 325 324 323 322 322 320 320 320 320 320 322 322 322 321 322 322 323 324 325 329 334 340 347 350 351 350 351 350 351 351 349 349 349 351 351 350 348 347 349 348 346 343
319 320 320 321 322 324 324 325 324 322 320 320 320 321 320 322 322 322 321 321 321 321 321 322 324 326 328 331 336 345 347 349 349 349 349 350 350 351 349 348 349 349 348 347 346 348 347 345 346
321 323 325 325 325 326 322 320 320 319 319 320 320 320 321 321 321 322 321 321 321 321 321 322 323 326 326 328 335 340 346 349 350 347 347 348 350 350 350 348 348 347 348 348 349 349 347 346 343
321 322 326 328 326 325 323 320 318 318 319 320 319 321 321 321 320 321 321 321 321 321 322 322 323 325 328 326 331 339 343 348 348 349 346 348 347 347 348 348 349 348 348 347 347 346 346 343 342
320 321 321 324 322 321 318 318 318 319 319 319 319 318 318 319 319 320 319 319 320 319 321 321 323 323 327 327 329 338 340 342 344 346 346 348 345 341 347 348 349 348 348 347 346 345 344 342 341
319 317 322 322 324 324 317 316 316 319 319 317 316 317 317 316 318 319 319 318 318 318 318 319 321 323 323 327 328 331 339 342 343 346 345 343 345 339 348 347 348 349 349 347 346 344 342 341 339
320 320 318 318 321 326 323 317 317 317 317 317 317 318 318 318 318 318 318 317 317 317 317 317 319 321 322 324 327 330 334 338 340 341 337 340 343 343 342 345 345 345 345 345 344 344 342 342 343
317 317 318 324 323 320 321 319 318 317 316 317 316 317 317 318 318 318 318 317 317 316 316 316 317 318 320 321 323 327 330 332 334 334 322 332 335 336 334 336 336 336 337 338 340 341 341 342 342
Wind_Speed
15 13 13 13 8 8 18 19 6 4 7 4 4 9 13 12 18 5 4 5 16 22 23 24 25 26 25 23 23 23 23 23 24 24 23 22 19 18 17 16 15 13 11 9 8 7 8 9 10
13 14 14 9 10 14 14 13 10 4 8 3 4 6 8 11 11 8 9 8 16 20 22 21 26 26 25 24 24 23 23 23 24 23 22 21 19 18 17 16 14 12 10 8 8 8 9 9 10
13 14 9 12 14 17 9 4 10 9 4 0 2 2 8 13 11 7 11 11 17 17 20 21 26 26 25 23 23 24 24 23 24 24 23 21 18 17 16 15 13 11 9 9 8 8 8 8 8
16 12 9 11 19 21 2 18 9 6 6 1 1 3 10 10 5 5 11 13 16 16 19 21 27 25 24 23 23 24 24 24 24 24 23 21 18 17 16 15 13 11 9 9 9 8 9 9 8
16 8 13 16 21 19 2 6 1 8 2 3 3 7 14 11 9 9 10 12 14 17 18 18 28 26 25 24 23 24 26 27 26 25 23 21 19 18 16 15 13 11 10 10 9 9 8 8 8
11 11 15 17 20 19 7 10 8 10 4 6 8 2 13 10 8 7 8 10 12 15 17 17 28 27 24 23 22 23 25 29 27 25 23 20 18 17 15 14 13 12 12 11 9 9 8 7 7
17 14 19 21 19 18 12 15 10 12 13 7 6 10 10 12 8 2 6 7 11 14 16 16 23 25 25 24 23 22 23 27 27 25 22 20 18 17 15 14 13 13 12 11 10 9 9 8 8
14 14 24 21 19 20 11 10 11 11 12 6 2 7 4 10 5 1 6 8 11 15 16 17 21 22 21 20 23 24 25 26 26 26 24 21 18 16 15 15 15 14 13 12 11 10 9 9 9
13 14 19 23 22 21 8 10 12 14 9 8 11 11 10 6 9 3 6 8 10 14 15 16 19 20 21 21 21 25 26 26 25 25 24 23 16 14 14 13 14 14 13 13 12 12 11 10 10
14 15 22 21 19 11 13 18 16 11 15 15 14 13 15 13 9 9 8 11 12 12 14 16 17 19 20 21 20 22 20 20 20 19 19 19 17 16 16 15 16 14 14 14 13 13 12 12 10
18 19 19 18 4 8 13 14 14 14 17 17 16 14 13 11 11 11 11 14 14 17 14 15 18 18 20 21 21 20 23 22 22 23 22 21 19 18 17 16 14 13 16 12 13 12 12 11 10
17 20 18 10 7 12 17 16 15 16 16 15 13 14 15 16 15 15 16 14 14 16 18 16 17 20 21 21 22 20 24 24 24 24 25 22 22 20 18 19 14 16 15 15 14 13 14 12 12
16 14 14 13 12 12 13 15 15 16 14 10 12 15 14 14 15 18 19 17 13 18 16 20 20 22 23 24 22 22 24 24 24 24 26 26 25 22 21 20 18 17 18 16 15 13 11 12 13
14 17 11 12 14 13 15 15 15 15 9 12 13 13 14 14 13 16 18 17 14 16 18 20 21 22 24 25 25 23 22 24 24 24 27 29 26 24 23 21 22 19 19 18 16 14 12 11 11
7 12 13 14 13 12 12 16 18 18 15 13 13 11 12 13 15 15 16 17 12 11 16 17 21 22 25 26 25 23 26 25 25 26 25 30 28 25 25 23 23 21 19 16 15 15 13 12 11
14 13 14 17 17 10 6 13 7 6 2 10 12 12 12 13 16 17 15 12 13 14 12 17 20 23 27 28 27 28 25 25 22 27 26 29 31 26 26 24 23 21 21 20 19 18 15 15 14
11 13 16 9 11 9 13 11 3 1 9 13 13 13 13 13 13 13 14 16 14 11 11 13 17 22 22 27 26 28 28 28 28 25 28 29 32 38 25 27 23 23 21 19 20 19 18 15 15
10 16 13 7 5 11 13 16 13 14 15 13 13 13 12 13 14 15 14 14 16 12 12 13 17 18 23 25 26 25 27 26 27 30 31 31 34 30 31 26 26 28 25 23 22 21 19 16 16
10 13 11 8 4 9 14 16 16 14 15 16 16 14 14 13 12 15 16 15 19 16 13 12 16 22 22 26 27 28 29 30 30 29 29 32 33 33 34 31 27 27 26 28 27 21 16 17 16
11 13 14 12 10 10 14 17 16 17 19 19 18 15 16 15 15 14 16 17 18 18 17 15 14 17 24 27 27 28 29 27 28 30 32 31 31 30 32 31 31 30 27 26 24 27 22 21 19
14 14 13 12 10 12 18 21 21 16 12 10 11 14 13 15 15 16 16 20 18 17 19 20 18 16 22 27 27 27 26 26 23 27 27 31 32 31 31 33 32 28 31 26 26 23 24 20 21
13 7 9 8 12 14 14 15 18 17 15 14 13 11 10 11 13 14 15 15 16 20 19 21 20 22 20 25 29 29 29 27 31 30 30 30 29 29 30 30 31 26 24 26 20 25 23 22 16
10 13 9 14 16 18 19 12 15 15 14 5 11 13 15 16 13 15 14 17 17 19 19 20 21 23 22 21 27 31 31 31 27 27 28 31 32 34 31 31 28 28 26 23 22 24 25 22 21
10 12 16 17 15 15 20 17 11 4 11 11 12 15 11 14 12 12 13 10 13 18 18 21 22 24 24 22 25 31 34 34 29 29 29 29 30 31 34 32 30 27 26 25 26 25 24 22 20
11 12 11 13 12 14 3 7 9 15 8 6 8 11 11 11 12 13 12 15 15 19 18 20 22 24 24 25 24 29 35 34 34 29 30 28 28 27 30 33 31 28 27 26 25 24 23 25 26
15 11 8 12 13 16 20 9 1 5 3 5 5 4 11 11 11 13 13 14 19 20 20 21 20 22 25 27 25 28 34 35 34 33 30 34 23 30 30 33 28 27 27 26 24 24 22 23 23
7 8 5 10 12 13 14 15 12 9 6 4 6 6 7 12 12 14 15 17 16 19 21 20 22 24 22 24 27 25 27 31 33 34 41 28 34 33 37 34 29 28 27 26 26 26 25 25 24
9 12 7 6 5 8 7 10 7 6 5 11 9 7 11 10 14 11 14 15 18 19 20 19 19 19 23 20 23 27 23 26 32 36 39 47 45 27 30 43 33 28 28 27 28 26 27 25 25
7 11 9 7 7 5 8 5 9 10 11 12 13 13 16 16 13 13 13 18 19 22 19 19 20 19 18 21 19 21 22 20 25 28 34 31 12 16 22 11 21 26 25 25 25 25 23 26 25
9 13 11 9 9 9 12 14 12 1 10 12 13 13 16 14 14 15 15 19 22 21 20 19 21 17 18 16 16 18 18 18 20 12 15 32 17 21 21 23 23 22 22 21 22 22 24 24 20
Wind_Direction
306 292 283 259 242 230 242 235 313 148 195 76 286 272 340 340 19 36 90 117 138 140 157 159 166 166 170 173 175 175 175 175 174 173 170 167 165 162 159 155 153 153 153 149 145 147 148 143 138
297 294 266 267 241 239 238 234 180 134 41 255 227 246 242 76 28 97 115 129 142 142 157 163 171 172 176 178 180 183 182 180 179 178 175 172 173 169 168 165 164 163 165 162 160 158 156 151 148
280 272 274 232 240 251 233 310 210 97 199 276 241 295 12 7 49 22 97 141 143 148 160 169 175 177 180 184 186 188 187 186 185 181 180 180 178 176 174 174 174 174 175 173 168 166 162 160 155
259 234 242 257 243 236 98 217 75 225 167 144 311 138 102 41 11 350 132 143 146 153 163 179 179 182 184 189 196 198 196 194 192 188 185 185 183 184 181 181 179 179 181 181 177 176 173 168 172
239 262 241 227 240 262 221 9 235 260 308 260 298 107 89 63 62 96 131 148 158 159 164 174 183 186 188 193 199 205 203 201 198 194 191 191 191 189 188 186 186 184 186 187 189 185 184 184 188
230 230 241 235 232 240 164 259 257 259 274 274 252 300 95 80 62 117 148 161 169 167 171 175 185 188 190 195 195 198 203 201 199 197 196 197 196 196 195 194 193 191 193 193 192 190 191 198 210
236 232 238 247 248 229 197 231 255 252 260 243 40 282 118 72 25 116 168 176 179 175 178 176 184 188 193 195 198 198 199 197 198 200 201 203 202 201 200 200 201 201 200 200 198 193 195 203 214
231 245 249 241 253 248 165 246 251 264 264 9 315 245 185 71 356 143 199 192 193 180 183 177 185 191 192 196 201 199 197 200 204 203 205 207 207 208 207 206 207 206 206 206 205 204 207 213 223
228 238 237 245 243 251 294 235 248 261 291 262 271 284 313 351 309 279 221 214 200 188 188 183 184 191 197 197 204 204 204 206 210 212 211 208 201 211 214 210 220 218 214 213 211 214 216 224 235
219 227 233 236 252 242 245 267 263 237 231 253 252 250 261 265 255 289 267 222 206 203 193 196 189 194 198 204 199 200 203 205 205 207 211 205 205 208 207 212 214 225 222 221 220 223 225 232 242
215 239 224 243 304 274 265 245 265 270 260 262 272 279 284 282 272 267 257 281 254 200 214 212 184 200 202 207 194 202 203 205 208 209 208 209 207 205 204 204 209 215 224 223 230 230 230 235 241
233 224 255 264 228 230 252 265 257 254 267 281 276 274 271 264 261 256 250 245 254 242 204 213 206 200 207 209 204 204 206 202 206 207 208 207 206 205 205 207 207 203 209 213 219 224 228 230 241
218 241 231 249 253 244 255 256 259 259 262 262 271 269 260 258 262 260 255 258 253 266 214 214 215 201 206 215 211 210 209 206 206 206 206 209 203 203 202 208 209 202 205 205 216 227 222 238 249
204 241 237 235 242 239 252 260 253 248 226 259 245 256 265 261 257 251 257 259 263 255 245 222 216 216 203 212 222 207 213 212 207 210 203 206 207 204 203 206 209 208 209 208 206 213 228 240 249
231 235 230 238 231 237 249 268 256 245 240 246 260 262 266 271 269 266 262 246 239 258 264 258 223 218 207 209 219 222 217 215 209 207 206 200 210 207 205 206 210 208 212 211 205 206 211 232 243
229 228 246 217 211 222 209 265 260 132 231 246 243 249 245 260 271 264 266 257 275 276 274 231 234 218 211 213 212 218 221 216 218 207 205 203 205 208 203 210 211 215 211 209 207 211 209 223 231
206 243 213 184 184 237 201 273 284 157 240 262 266 262 260 258 250 249 254 264 264 275 271 261 230 224 224 215 212 215 223 218 215 212 214 205 202 204 211 211 212 214 217 206 215 218 212 215 231
239 207 249 244 182 201 252 258 261 269 263 265 272 270 267 266 257 255 253 251 264 270 274 259 250 241 214 222 217 219 224 222 219 216 209 209 202 206 209 214 212 205 211 216 215 218 219 214 228
326 297 295 282 251 282 273 273 278 280 276 269 268 273 272 263 259 262 253 263 269 271 282 268 257 251 232 220 220 218 218 221 217 221 217 208 201 204 206 212 212 210 208 218 210 210 221 217 222
254 259 257 255 254 261 271 272 273 272 270 270 270 275 275 276 277 275 271 268 263 270 280 284 277 260 238 227 221 220 220 220 219 215 219 214 208 205 206 210 212 209 212 219 222 200 205 217 223
236 256 265 274 300 286 268 260 248 247 259 251 240 248 263 268 277 283 283 278 281 278 290 285 287 281 258 234 230 223 223 221 219 221 216 213 211 209 212 213 215 210 207 215 214 212 208 209 209
258 245 286 274 269 277 319 293 284 267 253 249 250 272 290 297 319 305 294 305 323 324 314 309 303 294 278 249 238 231 220 219 218 213 217 212 210 211 216 217 216 212 207 213 212 210 216 228 221
275 320 287 278 279 279 272 265 272 279 264 279 358 339 331 308 324 344 333 322 318 308 305 300 291 281 277 274 256 237 230 226 228 214 213 209 204 207 214 215 216 209 213 211 209 203 204 213 224
299 286 270 268 265 263 263 258 268 299 9 356 347 325 317 325 327 315 309 304 313 318 319 319 309 292 283 266 259 245 242 229 231 218 213 210 208 201 205 211 210 208 209 215 205 199 201 205 204
225 270 271 261 241 248 14 318 297 317 42 2 317 314 319 321 314 307 311 314 316 304 313 314 323 313 289 269 257 251 237 236 228 236 224 209 201 199 200 200 201 206 204 203 200 196 194 195 196
292 291 271 289 286 300 328 299 156 119 97 156 300 345 320 324 324 319 316 320 317 316 315 312 325 322 307 283 257 246 243 233 233 227 227 228 209 190 189 193 195 198 201 201 199 199 206 206 209
329 238 309 296 289 269 257 251 225 129 203 154 247 326 322 303 319 309 310 311 308 317 313 316 321 322 317 290 276 256 246 242 234 233 227 234 204 214 164 185 187 199 200 198 200 210 213 221 224
264 312 272 234 262 279 285 322 284 10 4 303 323 316 282 302 295 305 308 303 308 302 305 313 315 319 318 308 284 271 245 246 241 236 228 222 201 200 176 181 179 197 202 206 207 214 219 213 219
179 236 224 267 230 241 291 270 18 3 348 331 321 301 305 321 314 309 304 306 302 302 304 311 316 315 320 322 302 280 273 254 250 252 250 245 163 164 194 185 182 197 204 210 212 223 224 221 225
304 292 265 217 243 237 246 269 281 268 254 258 287 306 315 312 314 305 304 306 301 301 305 309 308 312 315 322 322 303 300 269 261 223 170 251 189 185 189 187 191 198 203 209 215 222 228 225 221